TimeEST,TemperatureF,Dew PointF,Humidity,Sea Level PressureIn,VisibilityMPH,Wind Direction,Wind SpeedMPH,Gust SpeedMPH,PrecipitationIn,Events,Conditions,WindDirDegrees,DateUTC
12:35 AM,3.2,1.4,92,29.90,10.0,Calm,Calm,-,N/A,,Clear,0,2013-01-02 05:35:00
1:15 AM,8.6,1.4,73,29.90,10.0,NW,3.5,-,N/A,,Clear,310,2013-01-02 06:15:00
1:35 AM,6.8,1.4,79,29.90,10.0,North,5.8,-,N/A,,Clear,360,2013-01-02 06:35:00
1:55 AM,6.8,3.2,85,29.89,10.0,Calm,Calm,-,N/A,,Clear,0,2013-01-02 06:55:00
2:15 AM,8.6,3.2,79,29.90,10.0,Calm,Calm,-,N/A,,Clear,0,2013-01-02 07:15:00
2:35 AM,6.8,-0.4,72,29.90,10.0,NE,3.5,-,N/A,,Clear,50,2013-01-02 07:35:00
2:55 AM,6.8,-0.4,72,29.89,10.0,NNE,3.5,-,N/A,,Scattered Clouds,20,2013-01-02 07:55:00
3:15 AM,6.8,1.4,79,29.89,10.0,Calm,Calm,-,N/A,,Overcast,0,2013-01-02 08:15:00
3:35 AM,5.0,-0.4,78,29.89,10.0,Calm,Calm,-,N/A,,Overcast,0,2013-01-02 08:35:00
3:55 AM,6.8,3.2,85,29.88,10.0,Calm,Calm,-,N/A,,Overcast,0,2013-01-02 08:55:00
4:15 AM,8.6,3.2,79,29.87,10.0,Calm,Calm,-,N/A,,Overcast,0,2013-01-02 09:15:00
4:35 AM,10.4,1.4,67,29.87,10.0,Calm,Calm,-,N/A,,Overcast,0,2013-01-02 09:35:00
4:55 AM,10.4,3.2,73,29.87,10.0,Calm,Calm,-,N/A,,Overcast,0,2013-01-02 09:55:00
5:15 AM,12.2,3.2,67,29.86,10.0,SW,4.6,-,N/A,,Overcast,230,2013-01-02 10:15:00
5:55 AM,12.2,3.2,67,29.86,10.0,South,3.5,-,N/A,,Overcast,190,2013-01-02 10:55:00
6:15 AM,12.2,3.2,67,29.86,10.0,South,3.5,-,N/A,,Overcast,190,2013-01-02 11:15:00
6:35 AM,14.0,3.2,62,29.85,10.0,SW,6.9,-,N/A,,Overcast,230,2013-01-02 11:35:00
6:55 AM,14.0,3.2,62,29.86,10.0,SSW,5.8,-,N/A,,Overcast,210,2013-01-02 11:55:00
7:15 AM,15.8,6.8,68,29.85,10.0,South,5.8,-,N/A,,Overcast,190,2013-01-02 12:15:00
7:35 AM,15.8,6.8,68,29.86,10.0,SSW,4.6,-,N/A,,Overcast,210,2013-01-02 12:35:00
7:55 AM,15.8,8.6,73,29.85,10.0,SW,8.1,17.3,N/A,,Overcast,230,2013-01-02 12:55:00
8:15 AM,15.8,8.6,73,29.85,10.0,WSW,13.8,17.3,N/A,,Overcast,240,2013-01-02 13:15:00
8:35 AM,15.8,8.6,73,29.85,7.0,SW,12.7,20.7,N/A,,Overcast,230,2013-01-02 13:35:00
9:15 AM,17.6,10.4,73,29.86,8.0,WSW,15.0,-,N/A,,Overcast,240,2013-01-02 14:15:00
9:35 AM,17.6,10.4,73,29.88,10.0,West,10.4,16.1,N/A,,Overcast,270,2013-01-02 14:35:00
9:55 AM,17.6,10.4,73,29.89,10.0,WNW,8.1,-,N/A,,Overcast,290,2013-01-02 14:55:00
10:15 AM,17.6,10.4,73,29.89,10.0,West,9.2,-,N/A,,Overcast,270,2013-01-02 15:15:00
10:35 AM,17.6,10.4,73,29.89,8.0,West,10.4,-,N/A,,Overcast,270,2013-01-02 15:35:00
10:55 AM,17.6,10.4,73,29.89,3.0,West,13.8,20.7,N/A,,Overcast,270,2013-01-02 15:55:00
11:15 AM,17.6,10.4,73,29.89,3.0,West,13.8,20.7,N/A,,Overcast,270,2013-01-02 16:15:00
11:35 AM,17.6,12.2,79,29.89,3.0,West,12.7,20.7,N/A,,Overcast,270,2013-01-02 16:35:00
12:15 PM,17.6,10.4,73,29.90,1.8,NNW,9.2,-,N/A,,Overcast,340,2013-01-02 17:15:00
12:35 PM,17.6,12.2,79,29.90,3.0,NNW,9.2,-,N/A,,Overcast,340,2013-01-02 17:35:00
1:15 PM,15.8,10.4,79,29.91,1.2,North,11.5,-,N/A,,Overcast,350,2013-01-02 18:15:00
1:55 PM,15.8,8.6,73,29.93,10.0,NNW,10.4,-,N/A,,Overcast,330,2013-01-02 18:55:00
2:15 PM,14.0,8.6,79,29.94,10.0,NW,9.2,16.1,N/A,,Overcast,320,2013-01-02 19:15:00
2:35 PM,14.0,6.8,73,29.95,10.0,NW,9.2,-,N/A,,Overcast,310,2013-01-02 19:35:00
2:55 PM,14.0,3.2,62,29.97,10.0,NW,10.4,18.4,N/A,,Scattered Clouds,310,2013-01-02 19:55:00
3:15 PM,12.2,3.2,67,29.97,10.0,NNW,11.5,17.3,N/A,,Partly Cloudy,330,2013-01-02 20:15:00
3:35 PM,12.2,3.2,67,29.99,10.0,NNW,10.4,-,N/A,,Mostly Cloudy,330,2013-01-02 20:35:00
4:15 PM,10.4,1.4,67,30.02,10.0,North,12.7,18.4,N/A,,Partly Cloudy,350,2013-01-02 21:15:00
4:35 PM,8.6,1.4,73,30.03,10.0,North,16.1,23.0,N/A,,Clear,350,2013-01-02 21:35:00
4:55 PM,6.8,-0.4,72,30.04,10.0,NNW,11.5,17.3,N/A,,Clear,340,2013-01-02 21:55:00
5:15 PM,6.8,-0.4,72,30.06,10.0,NW,12.7,17.3,N/A,,Mostly Cloudy,320,2013-01-02 22:15:00
5:35 PM,6.8,-2.2,67,30.06,10.0,NW,10.4,-,N/A,,Partly Cloudy,320,2013-01-02 22:35:00
6:35 PM,3.2,-2.2,78,30.07,10.0,NNW,6.9,-,N/A,,Clear,330,2013-01-02 23:35:00
6:55 PM,3.2,-4.0,72,30.08,10.0,NW,6.9,-,N/A,,Clear,320,2013-01-02 23:55:00
7:15 PM,3.2,-2.2,78,30.08,10.0,NW,8.1,-,N/A,,Clear,310,2013-01-03 00:15:00
7:55 PM,1.4,-5.8,72,30.09,10.0,NW,6.9,-,N/A,,Clear,320,2013-01-03 00:55:00
8:35 PM,1.4,-5.8,72,30.12,10.0,Calm,Calm,-,N/A,,Clear,0,2013-01-03 01:35:00
8:55 PM,-0.4,-5.8,78,30.13,10.0,Calm,Calm,-,N/A,,Clear,0,2013-01-03 01:55:00
9:15 PM,-0.4,-9.4,66,30.14,10.0,Calm,Calm,-,N/A,,Clear,0,2013-01-03 02:15:00
9:35 PM,-9999,-9999,N/A,30.13,10.0,North,4.6,-,N/A,,Clear,350,2013-01-03 02:35:00
10:55 PM,-2.2,-9.4,71,30.16,10.0,NNW,4.6,-,N/A,,Clear,340,2013-01-03 03:55:00
11:15 PM,-2.2,-9.4,71,30.16,10.0,Calm,Calm,-,N/A,,Clear,0,2013-01-03 04:15:00
11:35 PM,-4.0,-11.2,71,30.16,10.0,Calm,Calm,-,N/A,,Clear,0,2013-01-03 04:35:00
11:55 PM,-5.8,-7.6,92,30.17,10.0,Calm,Calm,-,N/A,,Clear,0,2013-01-03 04:55:00